Home   Weather   Cambridge   Past weeks

Flag for USA Past Weather in Cambridge, Massachusetts, USA — Yesterday and Last 2 Weeks

Now
37 °F

Passing clouds.


Feels Like: 27 °F
Forecast: 17 / 40 °F
Wind: 18 mph from Southwest

Location: Logan International Airport

Current Time: Jan 16, 2017 at 12:39:55 pm

Latest Report: Jan 16, 2017 at 11:54 am


Visibility: 10 mi

Pressure: 30.34 "Hg

Humidity: 41%

Dew Point: 15 °F

Location of CambridgeLocation

Past Weather in Cambridge — Graph

°F

Cambridge Temperature Yesterday

Maximum temperature yesterday: 37 °F (at 1:54 pm)
Minimum temperature yesterday: 27 °F (at 6:54 am)
Average temperature yesterday: 31 °F

High & Low Weather Summary for the Past Weeks

 TemperatureHumidityPressure
High60 °F (Jan 12, 12:54 pm)100% (Jan 3, 11:13 am)30.71 "Hg (Jan 3, 11:13 am)
Low11 °F (Jan 9, 4:54 am)23% (Jan 13, 6:54 pm)29.34 "Hg (Jan 4, 1:54 am)
Average33 °F69%30.17 "Hg
* Reported Jan 1 10:54 am — Jan 16 10:54 am, Cambridge, Weather by CustomWeather, © 2017

Note: Actual official high and low records may vary slightly from our data, if they occured in-between our weather recording intervals... More about our weather records

Advertising

Cambridge Weather History for the Previous 24 Hours

Scroll right to see more
 ConditionsComfort  
Time TempWeatherWind HumidityBarometerVisibility
10:54 am
Mon, Jan 16
36 °FPassing clouds.12 mph46%30.39 "Hg10 mi
9:54 am33 °FPassing clouds.12 mph52%30.43 "Hg10 mi
8:54 am30 °FPassing clouds.6 mph56%30.42 "Hg10 mi
7:54 am25 °FSunny.5 mph75%30.43 "Hg10 mi
6:54 am24 °FClear.No wind68%30.43 "Hg10 mi
5:54 am26 °FClear.No wind63%30.43 "Hg10 mi
4:54 am24 °FClear.No wind60%30.43 "Hg10 mi
3:54 am24 °FClear.No wind60%30.43 "Hg10 mi
2:54 am26 °FClear.No wind52%30.44 "Hg10 mi
1:54 am26 °FClear.6 mph52%30.45 "Hg10 mi
12:54 am27 °FClear.5 mph49%30.42 "Hg10 mi
11:54 pm
Sun, Jan 15
27 °FClear.6 mph51%30.41 "Hg10 mi
10:54 pm28 °FClear.6 mph49%30.41 "Hg10 mi
9:54 pm28 °FClear.3 mph51%30.41 "Hg10 mi
8:54 pm28 °FClear.6 mph56%30.39 "Hg10 mi
7:54 pm29 °FClear.7 mph51%30.38 "Hg10 mi
6:54 pm30 °FClear.7 mph51%30.37 "Hg10 mi
5:54 pm35 °FClear.7 mph40%30.34 "Hg10 mi
4:54 pm35 °FPassing clouds.9 mph38%30.32 "Hg10 mi
3:54 pm36 °FPassing clouds.9 mph37%30.30 "Hg10 mi
2:54 pm36 °FPassing clouds.10 mph38%30.28 "Hg10 mi
1:54 pm37 °FSunny.13 mph39%30.27 "Hg10 mi
12:54 pm36 °FSunny.13 mph40%30.27 "Hg10 mi
Weather by CustomWeather, © 2017

See weather overviewHow to use our weather pages